Regional Weather Roundup
Issued by NWS Bismarck, ND

Home | Current Version | Previous Version | Text Only | Print | Product List | Glossary On
Versions: 1 2 3 4 5 6 7 8 9 10 11 12 13 14 15 16 17 18 19 20 21 22 23 24 25 26 27 28 29 30 31 32 33 34 35 36 37 38 39 40 41 42 43 44 45 46 47 48 49 50
000
ASUS43 KBIS 280320
RWRBIS

NWR BROADCAST TEXT
NATIONAL WEATHER SERVICE BISMARCK ND
1000 PM CDT WED AUG 27 2014

NOTE: "FAIR" INDICATES FEW OR NO CLOUDS BELOW 12,000 FEET WITH NO
SIGNIFICANT WEATHER AND/OR OBSTRUCTIONS TO VISIBILITY.


CITY           SKY/WX    TMP DP  RH WIND       PRES   REMARKS
WILLISTON      CLEAR     72  53  51 S8        29.95R
MINOT          CLEAR     64  57  78 SE5       29.99S
MINOT AFB      CLEAR     61  60  94 S9        29.99R
BISMARCK       PTCLDY    66  60  81 S8        30.05R
DICKINSON      MOCLDY    64  60  87 S10       30.03R
GARRISON         N/A     62  59  90 S7        30.02R
HETTINGER ARPT PTCLDY    62  60  93 SE6       30.07R
JAMESTOWN      CLOUDY    66  61  84 SE7       30.06S
BEACH            N/A     64  61  88 S10       30.03S
CARRINGTON     FAIR      59  59 100 S7        30.07S
CROSBY         FAIR      66  57  72 S14       29.94S
HARVEY         FAIR      63  59  88 SE7       30.04S
HAZEN          FAIR      64  59  82 S12G18    30.03S
LINTON         CLOUDY    64  61  88 E5        30.06R
MANDAN         FAIR      63  59  88 S9        30.06S
OAKES            N/A     66  64  94 E7        30.07S
RUGBY          FAIR      63  59  88 S8        30.02S
STANLEY        FAIR      63  59  88 CALM      29.99F
TIOGA          FAIR      64  59  82 S9        30.00F
WATFORD CITY   FAIR      68  55  64 SE12      29.96S
$$

CITY           SKY/WX    TMP DP  RH WIND       PRES   REMARKS
GRAND FORKS    CLEAR     63  58  83 SE7       30.06S
GRAND FORKS AF CLEAR     61  61  99 S6        30.07S
DEVILS LAKE    CLEAR     64  55  72 S8        30.04S
FARGO          MOCLDY    66  60  81 SE8       30.08R
CANDO          FAIR      59  57  94 S8        30.04S
CAVALIER       FAIR      59  55  88 S5        30.05S
GRAFTON        FAIR      59  57  94 SE7       30.05F
GWINNER        CLOUDY    66  63  88 SE7       30.09S
LANGDON        FAIR      57  54  88 SE8       30.05S
ROLLA          FAIR      57  57 100 S6        30.04S
WALHALLA         N/A     63  61  94 S5        30.04F
$$

CITY           SKY/WX    TMP DP  RH WIND       PRES   REMARKS
ABERDEEN       MOCLDY    65  62  90 E3        30.06R
MOBRIDGE       CLOUDY    68  64  87 E9        30.01S
BUFFALO          N/A     63  60  90 SE7       30.01R
RAPID CITY     LGT RAIN  63  61  93 SW3       30.08S
GLASGOW        CLEAR     73  51  46 NE3       29.92R
SIDNEY         CLEAR    N/A N/A N/A S6        29.96S
WOLF POINT     CLEAR     70  54  56 CALM      29.92R
GLENDIVE       CLEAR     68  54  60 S12       29.99R
MILES CITY     PTCLDY    73  50  44 SE6       29.97R
BAKER          MOCLDY    67  60  78 SE13      30.05R
$$

CITY           SKY/WX    TMP DP  RH WIND       PRES   REMARKS
BILLINGS       PTCLDY    76  46  34 CALM      30.02R
GREAT FALLS    CLEAR     68  47  46 SW5       30.01S
REGINA         CLEAR     66  59  77 E5        29.86S
ESTEVAN        PTCLDY    66  59  77 SE9       29.94S
$$



USA.gov is the U.S. government's official web portal to all federal, state and local government web resources and services.